Погода в Габале

Азербайджан     40°58′47″N   47°50′53″E
темп.,
°C
ветер,
м/с
пор.,
м/с
влажн.,
%
обл.,
%
осадки,
мм/ч
давл.,
гПа
погр.,
м
27 октября, ср
ср2701:00+2ссв217480 0.1 103491
04:00+2ссв217348 0.1 103398
07:00+1ссв117567 0.0 1034104
10:00+4юз117470 0.0 1035649
13:00+6зюз237063 0.0 1032837
16:00+7зюз226423 0.1 1029767
19:00+4ссв21735 0.0 103011
22:00+3ссв22682 0.0 103012
28 октября, чт
чт2801:00+2ссв22650 0.0 102911
04:00+2ссв21630 0.0 102711
07:00+2ссв21630 0.0 102611
10:00+7ююз11560 0.0 1026260
13:00+9ююз21540 0.0 1024612
16:00+10ююз11550 0.0 1022560
19:00+6св11690 0.0 102411
22:00+5св22710 0.0 102511
29 октября, пт
пт2901:00+5св22680 0.0 102413
04:00+4св22640 0.0 102413
07:00+4св226221 0.0 102413
10:00+9ююв225076 0.0 1024319
13:00+12ююв2245100 0.0 1023907
16:00+11ю335696 0.0 1022960
19:00+8всв1185100 0.1 102532
22:00+8св018098 0.3 102614
30 октября, сб
сб3001:00+8зсз0182100 0.6 102625
04:00+8з1190100 1.0 102751
07:00+8юз1195100 0.4 102863
10:00+8ююз1194100 0.4 1030119
13:00+8юз1096100 0.3 1029118
16:00+8зюз119498 0.3 1029145
19:00+8зюз1196100 0.0 103073
22:00+8зюз119482 0.0 103156
31 октября, вс
вс3101:00+7с119071 0.0 103134
04:00+7ссв228448 0.0 103016
07:00+7св227933 0.0 102914
10:00+10ююз1171100 0.0 1029258
13:00+12ююз2167100 0.0 1027746
16:00+13юз2167100 0.0 1025549
19:00+10юз1184100 0.0 102652
22:00+9ссз118740 0.0 102634